[[{"header":{"parameterUnit":"m.s-1","parameterCategory":1,"la1":30.2991,"la2":30.254,"lo1":-89.0895,"lo2":-89.0444,"dy":0.0017,"dx":0.0017,"nx":28,"ny":28,"refTime":"2025-11-26T09:00:00:Z","depth":0,"parameterNumber":2,"parameterNumberName":"U-component_of_WINDS"},"data":[0,0,0,0,0,0,0,0,0,0,0,0,0,0,0,0,0,0,0,0,0,0,0,0,0,0,0,0,0,0,0,0,0,0,0,0,0,0,0,0,0,0,0,0,0,0,0,0,0,0,0,0,0,0,0,0,0,0,1.336,1.336,0,1.3338,1.3337,1.3337,1.3311,1.3311,1.331,1.331,1.3285,1.3285,1.3285,0,0,0,0,0,0,0,0,0,0,0,0,0,1.338,1.338,1.336,1.336,1.336,1.3338,1.3337,1.3337,1.3311,1.331,1.331,1.331,1.3285,1.3285,1.3285,0,0,0,0,0,0,0,0,0,0,0,0,0,1.3366,1.338,1.336,1.3344,1.3342,1.3338,1.3337,1.3337,1.3311,1.331,1.331,1.3309,1.3286,1.3285,1.3285,1.3294,0,0,1.3283,1.3283,0,0,0,0,0,0,0,0,1.3367,1.3365,1.3347,1.3345,1.3343,1.3326,1.3335,1.3322,1.3311,1.3323,1.331,1.3309,1.3299,1.3298,1.3295,1.3293,1.3292,1.3283,1.3283,1.3283,1.3283,0,0,0,0,0,0,0,1.3368,1.3366,1.3351,1.3346,1.3344,1.3338,1.3335,1.3333,1.3315,1.3322,1.332,1.3318,1.3298,1.3295,1.3294,1.3291,1.3283,1.3283,1.3283,1.3283,1.3296,1.3297,0,0,0,0,0,0,1.3371,1.3367,1.3352,1.335,1.3354,1.3338,1.3335,1.3332,1.3315,1.3311,1.3318,1.3317,1.3296,1.3295,1.3293,1.3303,1.3283,1.3283,1.3282,1.3296,1.3296,1.3297,0,0,0,0,0,0,1.3372,1.337,1.3353,1.3358,1.3356,1.3338,1.3336,1.3332,1.3329,1.3312,1.3308,1.3318,1.3296,1.3294,1.3294,1.3302,1.3282,1.3282,1.3295,1.3296,1.3297,1.3322,0,0,0,0,0,0,1.3372,1.3371,1.3374,1.3359,1.3355,1.3354,1.3336,1.3332,1.3329,1.3326,1.3311,1.3308,1.3295,1.3295,1.3294,1.3301,1.3282,1.3294,1.3295,1.3296,1.3321,1.3324,1.3327,0,0,0,0,0,1.3373,1.3381,1.3374,1.3372,1.3359,1.3355,1.3353,1.3338,1.3329,1.3333,1.3322,1.3309,1.3301,1.3295,1.3294,1.33,1.3294,1.3295,1.3296,1.3319,1.3323,1.3327,0,0,0,0,0,0,1.3397,1.3379,1.3371,1.3374,1.3366,1.335,1.3354,1.3343,1.3337,1.3335,1.3317,1.3313,1.3316,1.3308,1.3302,1.3309,1.3296,1.3297,1.3313,1.3317,1.332,1.3321,1.3281,0,0,0,0,0,1.3403,1.3401,1.3386,1.339,1.3387,1.3371,1.3369,1.3358,1.3349,1.3345,1.3334,1.3326,1.3322,1.3319,1.3314,1.332,1.3316,1.3324,1.3327,1.333,1.333,1.3333,1.3336,1.3302,1.3302,1.3302,0,0,1.3415,1.3405,1.3404,1.3395,1.3387,1.3386,1.3368,1.3367,1.3366,1.3345,1.3345,1.3337,1.3326,1.3329,1.333,1.3323,1.3339,1.3331,1.3334,1.3333,1.3335,1.3338,1.3341,1.3303,1.3302,1.3302,0,0,1.3435,1.3428,1.3431,1.3424,1.3413,1.3403,1.3404,1.339,1.3384,1.3384,1.3369,1.3367,1.336,1.3353,1.3348,1.3368,1.3356,1.3367,1.3382,1.3385,1.3388,1.339,1.3397,1.34,1.3368,1.3368,1.3368,0,1.3451,1.3448,1.3433,1.3434,1.343,1.3412,1.3415,1.3409,1.3398,1.3395,1.3388,1.3379,1.3371,1.3372,1.3377,1.3374,1.3375,1.3368,1.3389,1.3391,1.3393,1.3399,1.3402,1.337,1.337,1.3369,1.3369,0,1.3468,1.3466,1.347,1.346,1.3457,1.3458,1.3444,1.3443,1.3433,1.3424,1.3424,1.3414,1.3406,1.3406,1.3396,1.3407,1.3403,1.3392,1.3378,1.3398,1.3404,1.3406,1.3372,1.3371,1.3371,1.337,0,0,1.3501,1.3484,1.3486,1.3481,1.3469,1.3467,1.3469,1.3462,1.3461,1.3454,1.3455,1.345,1.3441,1.3436,1.3426,1.3428,1.3444,1.3418,1.3417,1.3423,1.3455,1.3462,1.3465,1.3437,1.3437,1.3438,1.3456,0,1.3519,1.352,1.3507,1.3512,1.351,1.3494,1.3495,1.3488,1.348,1.3477,1.3468,1.3465,1.3453,1.345,1.3452,1.3442,1.3451,1.3441,1.3437,1.3437,1.3439,1.3468,1.3475,1.3493,1.3458,1.3458,1.3458,0,1.3539,1.3534,1.3538,1.3527,1.3526,1.3527,1.352,1.3518,1.351,1.3504,1.3499,1.3488,1.3488,1.3476,1.3476,1.347,1.3468,1.3463,1.3463,1.3461,1.3448,1.3466,1.3498,1.35,1.3462,1.3461,1.3461,0,1.3562,1.3557,1.3559,1.3555,1.3542,1.3543,1.3538,1.3529,1.3526,1.3521,1.3519,1.3514,1.351,1.3507,1.3494,1.3487,1.3496,1.3483,1.349,1.3491,1.3492,1.3492,1.3523,1.3492,1.3492,1.3492,1.3492,0,1.3583,1.3586,1.3569,1.357,1.3573,1.356,1.3563,1.3556,1.3549,1.3548,1.3534,1.3534,1.3518,1.3516,1.3506,1.3508,1.3507,1.3502,1.3499,1.3502,1.3503,1.35,1.3498,1.3493,1.3493,1.3493,1.3492,0,1.3608,1.3597,1.3599,1.3586,1.3583,1.3586,1.3576,1.3576,1.3568,1.3568,1.3567,1.3553,1.3551,1.3538,1.3532,1.3526,1.353,1.3525,1.3533,1.3531,1.354,1.3539,1.3569,1.3572,1.354,1.3541,1.3541,0,1.3622,1.3624,1.3613,1.3611,1.3607,1.3605,1.3603,1.359,1.3588,1.3579,1.3581,1.3577,1.3573,1.3569,1.3559,1.3554,1.3549,1.356,1.3548,1.3552,1.3548,1.3548,1.3548,1.3562,1.3562,1.3563,1.3563,0,1.3646,1.3641,1.3638,1.3634,1.3632,1.3627,1.3622,1.3622,1.3608,1.3606,1.3603,1.3601,1.3595,1.3591,1.3586,1.358,1.3569,1.3567,1.3568,1.3572,1.3576,1.3573,1.3539,1.3566,1.3566,1.3565,1.3565,1.3565,1.3666,1.3667,1.366,1.3657,1.3652,1.3648,1.3648,1.364,1.3638,1.3633,1.3625,1.3624,1.3616,1.3607,1.3603,1.3601,1.3595,1.3597,1.3597,1.3598,1.36,1.3577,1.36,1.36,1.36,1.36,1.36,0,1.3689,1.3684,1.3682,1.3676,1.3674,1.3665,1.3659,1.3658,1.3657,1.3651,1.3648,1.3645,1.3642,1.3632,1.3628,1.3629,1.3624,1.3628,1.3627,1.3626,1.3605,1.3604,1.3632,1.3632,1.3632,1.3632,1.3632,1.3632,1.3701,1.3703,1.3697,1.3697,1.3692,1.369,1.3688,1.3684,1.3679,1.3677,1.3674,1.3668,1.3661,1.3656,1.3653,1.365,1.3649,1.3655,1.365,1.3631,1.3628,1.3625,1.3623,1.3655,1.3655,1.3671,1.3671,1.3671]},{"header":{"parameterUnit":"m.s-1","parameterCategory":1,"la1":30.2991,"la2":30.254,"lo1":-89.0895,"lo2":-89.0444,"dy":0.0017,"dx":0.0017,"nx":28,"ny":28,"refTime":"2025-11-26T09:00:00:Z","depth":0,"parameterNumber":3,"parameterNumberName":"V-component_of_WINDS"},"data":[0,0,0,0,0,0,0,0,0,0,0,0,0,0,0,0,0,0,0,0,0,0,0,0,0,0,0,0,0,0,0,0,0,0,0,0,0,0,0,0,0,0,0,0,0,0,0,0,0,0,0,0,0,0,0,0,0,0,-5.3408,-5.341,0,-5.3543,-5.3545,-5.3546,-5.3497,-5.3494,-5.3491,-5.3488,-5.3621,-5.3628,-5.3634,0,0,0,0,0,0,0,0,0,0,0,0,0,-5.3104,-5.311,-5.3408,-5.341,-5.3412,-5.3543,-5.3545,-5.3547,-5.3497,-5.3494,-5.349,-5.3487,-5.3619,-5.3627,-5.3634,0,0,0,0,0,0,0,0,0,0,0,0,0,-5.3238,-5.3112,-5.3408,-5.3403,-5.3404,-5.3543,-5.3545,-5.3547,-5.3498,-5.3494,-5.3489,-5.3485,-5.3617,-5.3626,-5.3635,-5.3785,0,0,-5.3665,-5.3669,0,0,0,0,0,0,0,0,-5.323,-5.3249,-5.3402,-5.3404,-5.3405,-5.3499,-5.3487,-5.3627,-5.3499,-5.3462,-5.3488,-5.3483,-5.3584,-5.3596,-5.3631,-5.3792,-5.3797,-5.3666,-5.3671,-5.3675,-5.3678,0,0,0,0,0,0,0,-5.3221,-5.3243,-5.3461,-5.3404,-5.3406,-5.3393,-5.3407,-5.3513,-5.3547,-5.3465,-5.3462,-5.3479,-5.3584,-5.3622,-5.3634,-5.3799,-5.3665,-5.3674,-5.368,-5.3683,-5.4091,-5.4096,0,0,0,0,0,0,-5.3212,-5.3235,-5.3457,-5.3465,-5.3305,-5.3402,-5.3418,-5.3473,-5.3546,-5.3552,-5.3483,-5.3476,-5.3608,-5.3623,-5.3638,-5.382,-5.3675,-5.3684,-5.369,-5.4086,-5.4092,-5.4098,0,0,0,0,0,0,-5.3205,-5.3232,-5.3452,-5.335,-5.3377,-5.3412,-5.3475,-5.3478,-5.3516,-5.3559,-5.3564,-5.3516,-5.3605,-5.3625,-5.375,-5.3824,-5.3689,-5.3697,-5.408,-5.4088,-5.4095,-5.4184,0,0,0,0,0,0,-5.3197,-5.323,-5.3288,-5.3351,-5.3382,-5.3563,-5.3479,-5.3484,-5.3534,-5.3526,-5.3591,-5.3598,-5.3603,-5.3736,-5.3759,-5.3834,-5.3705,-5.4074,-5.4084,-5.4093,-5.4174,-5.4193,-5.421,0,0,0,0,0,-5.3186,-5.3306,-5.3291,-5.3318,-5.3456,-5.3567,-5.3584,-5.3589,-5.354,-5.3598,-5.3626,-5.3595,-5.3812,-5.3749,-5.3775,-5.3854,-5.4069,-5.4081,-5.4092,-5.4166,-5.419,-5.4209,0,0,0,0,0,0,-5.3248,-5.3314,-5.3298,-5.3443,-5.35,-5.3558,-5.3632,-5.3614,-5.3685,-5.3675,-5.3676,-5.3691,-5.3821,-5.3849,-5.3779,-5.4004,-5.3933,-5.395,-5.398,-5.4003,-5.402,-5.4011,-5.3713,0,0,0,0,0,-5.3279,-5.3365,-5.3417,-5.354,-5.3569,-5.3596,-5.3644,-5.3644,-5.3702,-5.3726,-5.3762,-5.3819,-5.3899,-5.3952,-5.4029,-5.4178,-5.4192,-5.4245,-5.4263,-5.4277,-5.4292,-5.4374,-5.4399,-5.4136,-5.4135,-5.4135,0,0,-5.3343,-5.339,-5.3444,-5.3554,-5.3598,-5.3686,-5.3617,-5.3712,-5.3778,-5.3739,-5.3861,-5.389,-5.3953,-5.4091,-5.4154,-5.4119,-5.4368,-5.4292,-5.4303,-5.431,-5.4388,-5.4413,-5.4436,-5.4143,-5.4142,-5.4141,0,0,-5.3505,-5.3549,-5.3657,-5.3703,-5.3772,-5.3789,-5.3815,-5.3877,-5.3895,-5.4017,-5.3991,-5.4068,-5.4207,-5.4253,-5.4295,-5.4477,-5.4452,-5.4502,-5.4594,-5.4674,-5.4695,-5.4713,-5.4779,-5.4803,-5.4516,-5.4517,-5.4517,0,-5.3576,-5.3709,-5.3714,-5.3813,-5.3862,-5.3834,-5.3943,-5.3986,-5.4076,-5.411,-5.4071,-5.4246,-5.4286,-5.4436,-5.448,-5.4515,-5.4544,-5.4494,-5.4692,-5.471,-5.4728,-5.479,-5.4815,-5.4522,-5.4522,-5.4521,-5.452,0,-5.3793,-5.3886,-5.3964,-5.4054,-5.4112,-5.4215,-5.4234,-5.4292,-5.4287,-5.4308,-5.4433,-5.4481,-5.4567,-5.4603,-5.4597,-5.4752,-5.4729,-5.4691,-5.4619,-5.4758,-5.4817,-5.4841,-5.453,-5.4528,-5.4527,-5.4525,0,0,-5.3997,-5.409,-5.4118,-5.416,-5.4234,-5.4305,-5.4407,-5.4494,-5.4544,-5.4606,-5.4692,-5.4811,-5.4777,-5.4825,-5.4824,-5.4894,-5.5037,-5.4848,-5.4849,-5.4882,-5.5211,-5.524,-5.5268,-5.5021,-5.5025,-5.5029,-5.5206,0,-5.4166,-5.4347,-5.4355,-5.4519,-5.4605,-5.4581,-5.4669,-5.4724,-5.4747,-5.4822,-5.4846,-5.4932,-5.488,-5.4909,-5.4977,-5.5005,-5.5103,-5.4992,-5.51,-5.5104,-5.5086,-5.5298,-5.5329,-5.5494,-5.5229,-5.5233,-5.5236,0,-5.4387,-5.4459,-5.4633,-5.4697,-5.4733,-5.4813,-5.4894,-5.4966,-5.5028,-5.5039,-5.5094,-5.5084,-5.5187,-5.5113,-5.5256,-5.518,-5.5225,-5.5245,-5.5252,-5.5262,-5.5179,-5.5315,-5.5546,-5.5571,-5.5272,-5.5269,-5.5266,0,-5.452,-5.466,-5.4783,-5.4819,-5.4895,-5.4953,-5.4987,-5.5044,-5.5096,-5.5166,-5.52,-5.5281,-5.5325,-5.5387,-5.5399,-5.5343,-5.5542,-5.5468,-5.5554,-5.5554,-5.5598,-5.5595,-5.584,-5.5625,-5.5625,-5.5624,-5.5624,0,-5.4708,-5.4815,-5.4844,-5.492,-5.5039,-5.5047,-5.5165,-5.5195,-5.5246,-5.5327,-5.5309,-5.5384,-5.5395,-5.5473,-5.5482,-5.56,-5.5619,-5.5631,-5.5633,-5.5634,-5.5632,-5.5663,-5.5652,-5.5631,-5.5629,-5.5628,-5.5627,0,-5.4876,-5.49,-5.5032,-5.5095,-5.5114,-5.5199,-5.5252,-5.5324,-5.5346,-5.5448,-5.5472,-5.5505,-5.5596,-5.5614,-5.5721,-5.5727,-5.5867,-5.5857,-5.5847,-5.5847,-5.5932,-5.5924,-5.6206,-5.6244,-5.6004,-5.6006,-5.6008,0,-5.4995,-5.5078,-5.5151,-5.5204,-5.5242,-5.5328,-5.5382,-5.5393,-5.5449,-5.5527,-5.5589,-5.5679,-5.5751,-5.5898,-5.593,-5.6012,-5.6004,-5.6097,-5.6016,-5.6015,-5.6006,-5.6002,-5.601,-5.6112,-5.6115,-5.6117,-5.6119,0,-5.5204,-5.5212,-5.5291,-5.5376,-5.5441,-5.5507,-5.557,-5.5614,-5.5633,-5.5698,-5.5792,-5.5848,-5.5959,-5.6048,-5.613,-5.6164,-5.6145,-5.6144,-5.6169,-5.6171,-5.6163,-5.6169,-5.5891,-5.6138,-5.6136,-5.6134,-5.6133,-5.6133,-5.5352,-5.5425,-5.5488,-5.5577,-5.5626,-5.5686,-5.5758,-5.5789,-5.5868,-5.596,-5.5961,-5.6064,-5.6124,-5.6233,-5.6272,-5.6352,-5.6323,-5.6358,-5.6367,-5.6376,-5.6385,-5.615,-5.6367,-5.6367,-5.6366,-5.6366,-5.6365,0,-5.5561,-5.5601,-5.5683,-5.5773,-5.5843,-5.5821,-5.589,-5.595,-5.6041,-5.61,-5.6172,-5.6281,-5.6367,-5.6408,-5.6493,-5.655,-5.6543,-5.6572,-5.6568,-5.6577,-5.6405,-5.6376,-5.6576,-5.6576,-5.6576,-5.6576,-5.6576,-5.6576,-5.5678,-5.5801,-5.5816,-5.5963,-5.6002,-5.6104,-5.6146,-5.6201,-5.6248,-5.6371,-5.6443,-5.647,-5.6521,-5.6611,-5.6689,-5.6699,-5.6731,-5.6764,-5.677,-5.661,-5.6588,-5.6568,-5.6541,-5.6771,-5.6772,-5.6934,-5.6936,-5.6937]}]]